Simultaneous Nadir Overpasses (SNOs) Predictions

Prediction of SNOs between LANDSAT-8 and METOP-A Satellite Orbit:

Table of predicted SNOs for the next 14.0 days since TLE Epoch: 2/20/2021
Index Date (LANDSAT-8) Time (LANDSAT-8) Lat,Lon (LANDSAT-8) SZA (LANDSAT-8 ) Date (METOP-A) Time (METOP-A) Lat,Lon (METOP-A) SZA (METOP-A ) Distance(km) Time Diff (sec)
1 02/21/2021 15:39:28 -81.42, 170.06 86.18 02/21/2021 15:38:26 -81.43, 169.93 86.22 2.28 62
2 02/21/2021 16:28:55 81.41, -22.54 93.78 02/21/2021 16:29:06 81.42, -22.38 93.80 2.77 11
3 02/24/2021 11:13:42 -81.43,-123.42 87.19 02/24/2021 11:12:47 -81.42,-123.28 87.21 2.64 55
4 02/24/2021 12:03:09 81.42, 43.95 92.77 02/24/2021 12:03:28 81.42, 44.01 92.78 1.07 19
5 02/27/2021 06:47:56 -81.43, -56.94 88.22 02/27/2021 06:47:09 -81.42, -56.89 88.25 1.73 47
6 02/27/2021 07:37:23 81.42, 110.41 91.73 02/27/2021 07:37:50 81.42, 110.39 91.74 0.39 27
7 03/02/2021 02:22:10 -81.41, 9.13 89.32 03/02/2021 02:21:31 -81.43, 9.10 89.33 1.59 39
8 03/02/2021 03:11:36 81.42, 176.83 90.68 03/02/2021 03:12:11 81.42, 176.75 90.69 1.33 35
9 03/04/2021 21:56:24 -81.41, 75.54 90.39 03/04/2021 21:55:53 -81.43, 75.46 90.40 2.07 31



Historial Predications of SNOs between LANDSAT-8 and METOP-A
